Date String (YYYY-MM-DD hh:mm:ss) UTC,Instrument flags,Ambient pressure (hPa),Sample flow (lpm),Bypass flow (lpm),Sample temperature (°C),Ambient temperature (°C),ASC tube jacket temperature (°C),LED temperature (°C),Box temperature (°C),Sample RH (%),Span deviation,Mass concentration (μg/m³),Mass concentration (μg/m³),Mass concentration (μg/m³)
DateTimeUTC,F1_M11,P_M11,Q1_M11,Q2_M11,T1_M11,T2_M11,T3_M11,T4_M11,T5_M11,U1_M11,ZSPAN_M11,X2_M11,X0_M11,X1_M11
2021-09-01 21:00:00,,0821.6,5.01,0.00,29.4,27.6,00.0,38.3,31.1,22.8,0001.3,0022.95,0036.45,0021.24
2021-09-01 21:01:00,,0821.5,5.01,0.00,29.2,26.0,00.0,38.3,30.5,23.1,0001.2,0022.97,0037.50,0021.26
2021-09-01 21:02:00,,0821.6,5.00,0.00,29.1,25.9,00.0,38.2,30.5,23.6,0001.3,0023.02,0038.64,0021.23
2021-09-01 21:03:00,,0821.6,5.00,0.00,29.1,26.3,00.0,38.2,30.7,23.1,0001.4,0023.06,0038.47,0021.22
2021-09-01 21:04:00,,0821.6,5.00,0.00,29.1,26.8,00.0,38.2,30.8,23.1,0001.5,0023.14,0038.69,0021.22
2021-09-01 21:05:00,,0821.6,5.00,0.00,29.1,27.2,00.0,38.2,30.9,22.3,0001.4,0023.15,0038.55,0021.22
2021-09-01 21:06:00,,0821.6,5.01,0.00,29.1,27.6,00.0,38.2,31.0,22.1,0001.4,0023.15,0038.84,0021.23
2021-09-01 21:07:00,,0821.6,4.99,0.00,29.2,27.9,00.0,38.2,31.1,22.3,0001.4,0023.14,0038.47,0021.21
2021-09-01 21:08:00,,0821.6,5.00,0.00,29.3,28.2,00.0,38.2,31.2,22.3,0001.5,0023.06,0037.97,0021.17
2021-09-01 21:09:00,,0821.6,5.00,0.00,29.3,28.4,00.0,38.2,31.3,22.0,0001.4,0022.97,0037.79,0021.14
2021-09-01 21:10:00,,0821.6,5.00,0.00,29.4,28.6,00.0,38.3,31.3,22.1,0001.6,0022.96,0037.60,0021.15
2021-09-01 21:11:00,,0821.6,4.99,0.00,29.4,28.0,00.0,38.3,31.2,22.4,0001.6,0023.00,0038.01,0021.13
2021-09-01 21:12:00,,0821.6,5.01,0.00,29.3,26.2,00.0,38.3,30.7,22.1,0001.6,0023.06,0038.28,0021.11
2021-09-01 21:13:00,,0821.6,5.00,0.00,29.1,25.9,00.0,38.3,30.6,22.8,0001.4,0023.08,0037.44,0021.10
2021-09-01 21:14:00,,0821.6,4.99,0.00,29.1,26.3,00.0,38.3,30.7,22.5,0001.5,0023.04,0037.32,0021.07
2021-09-01 21:15:00,,0821.6,4.99,0.00,29.1,26.7,00.0,38.2,30.8,22.6,0001.5,0022.97,0037.51,0021.04
2021-09-01 21:16:00,,0821.5,5.01,0.00,29.1,27.2,00.0,38.2,30.9,22.1,0001.5,0022.97,0038.20,0021.02
2021-09-01 21:17:00,,0821.5,4.99,0.00,29.2,27.6,00.0,38.2,31.0,22.1,0001.5,0022.94,0039.30,0021.00
2021-09-01 21:18:00,,0821.5,5.00,0.00,29.2,27.9,00.0,38.2,31.1,22.1,0001.6,0023.01,0041.09,0020.99
2021-09-01 21:19:00,,0821.6,5.00,0.00,29.3,28.2,00.0,38.2,31.2,22.2,0001.4,0023.11,0041.60,0020.99
2021-09-01 21:20:00,,0821.6,5.01,0.00,29.3,28.4,00.0,38.3,31.3,22.5,0001.5,0023.20,0042.42,0021.02
2021-09-01 21:21:00,,0821.6,4.99,0.00,29.4,28.5,00.0,38.3,31.3,22.4,0001.4,0023.24,0042.78,0021.03
2021-09-01 21:22:00,,0821.6,5.01,0.00,29.4,27.3,00.0,38.3,31.0,22.7,0001.4,0023.23,0043.67,0021.04
2021-09-01 21:23:00,,0821.6,5.00,0.00,29.2,25.8,00.0,38.3,30.6,23.4,0001.7,0023.21,0043.51,0021.05
2021-09-01 21:24:00,,0821.6,5.00,0.00,29.1,25.9,00.0,38.3,30.6,23.5,0001.8,0023.23,0044.46,0021.06
2021-09-01 21:25:00,,0821.7,5.00,0.00,29.1,26.4,00.0,38.3,30.7,23.5,0001.6,0023.28,0045.11,0021.10
2021-09-01 21:26:00,,0821.6,5.01,0.00,29.1,26.8,00.0,38.2,30.8,23.5,0001.7,0023.37,0045.14,0021.13
2021-09-01 21:27:00,,0821.6,5.00,0.00,29.1,27.3,00.0,38.2,30.9,23.7,0001.7,0023.46,0044.57,0021.15
2021-09-01 21:28:00,,0821.6,5.02,0.00,29.2,27.6,00.0,38.2,31.0,23.7,0001.9,0023.46,0043.43,0021.17
2021-09-01 21:29:00,,0821.6,5.00,0.00,29.2,28.0,00.0,38.2,31.1,23.2,0001.9,0023.45,0042.52,0021.18
2021-09-01 21:30:00,,0821.6,5.00,0.00,29.3,28.2,00.0,38.2,31.2,23.5,0001.8,0023.47,0042.50,0021.19
2021-09-01 21:31:00,,0821.6,5.00,0.00,29.3,28.4,00.0,38.3,31.3,23.4,0001.9,0023.49,0041.20,0021.18
2021-09-01 21:32:00,,0821.7,5.00,0.00,29.4,28.3,00.0,38.3,31.3,24.4,0001.8,0023.47,0040.18,0021.16
2021-09-01 21:33:00,,0821.6,5.01,0.00,29.3,26.7,00.0,38.3,30.8,25.2,0001.9,0023.45,0040.28,0021.13
2021-09-01 21:34:00,,0821.6,5.00,0.00,29.1,25.7,00.0,38.3,30.5,25.7,0001.7,0023.41,0040.90,0021.09
2021-09-01 21:35:00,,0821.6,5.00,0.00,29.1,26.1,00.0,38.3,30.6,25.7,0001.6,0023.32,0041.26,0021.03
2021-09-01 21:36:00,,0821.6,5.01,0.00,29.1,26.5,00.0,38.2,30.7,25.6,0001.7,0023.24,0041.36,0020.97
2021-09-01 21:37:00,,0821.6,4.99,0.00,29.1,27.0,00.0,38.2,30.8,25.8,0001.8,0023.15,0041.72,0020.91
2021-09-01 21:38:00,,0821.5,5.01,0.00,29.1,27.4,00.0,38.2,30.9,25.3,0002.0,0023.10,0042.12,0020.85
2021-09-01 21:39:00,,0821.5,4.99,0.00,29.2,27.7,00.0,38.2,31.0,25.2,0001.8,0023.09,0042.94,0020.79
2021-09-01 21:40:00,,0821.5,5.01,0.00,29.2,28.0,00.0,38.2,31.1,25.3,0001.6,0023.08,0043.43,0020.73
2021-09-01 21:41:00,,0821.5,5.00,0.00,29.3,28.3,00.0,38.2,31.2,25.0,0001.7,0022.99,0043.20,0020.67
2021-09-01 21:42:00,,0821.6,5.01,0.00,29.3,28.5,00.0,38.3,31.3,24.7,0001.5,0022.85,0042.96,0020.60
2021-09-01 21:43:00,,0821.6,5.00,0.00,29.4,28.5,00.0,38.3,31.3,24.5,0001.7,0022.79,0044.01,0020.55
2021-09-01 21:44:00,,0821.6,5.00,0.00,29.4,27.1,00.0,38.3,31.0,24.6,0001.4,0022.76,0042.69,0020.52
2021-09-01 21:45:00,,0821.5,5.00,0.00,29.2,25.8,00.0,38.3,30.6,25.3,0001.4,0022.71,0041.19,0020.48
2021-09-01 21:46:00,,0821.5,5.00,0.00,29.1,26.0,00.0,38.3,30.6,25.4,0001.4,0022.80,0040.41,0020.45
2021-09-01 21:47:00,,0821.5,5.01,0.00,29.1,26.5,00.0,38.3,30.7,25.8,0001.2,0022.79,0040.27,0020.45
2021-09-01 21:48:00,,0821.5,4.99,0.00,29.1,26.9,00.0,38.2,30.8,26.1,0000.9,0022.75,0040.21,0020.45
2021-09-01 21:49:00,,0821.5,5.01,0.00,29.1,27.3,00.0,38.2,30.9,26.4,0000.8,0022.72,0040.30,0020.44
2021-09-01 21:50:00,,0821.4,4.99,0.00,29.2,27.7,00.0,38.2,31.0,26.1,0000.8,0022.70,0039.40,0020.42
2021-09-01 21:51:00,,0821.4,5.00,0.00,29.2,28.0,00.0,38.2,31.1,25.9,0000.6,0022.56,0038.15,0020.35
2021-09-01 21:52:00,,0821.4,5.00,0.00,29.3,28.3,00.0,38.2,31.2,25.8,0000.7,0022.56,0038.20,0020.35
2021-09-01 21:53:00,,0821.4,5.00,0.00,29.3,28.5,00.0,38.3,31.3,25.6,0000.9,0022.58,0038.32,0020.34
2021-09-01 21:54:00,,0821.4,5.01,0.00,29.4,28.2,00.0,38.3,31.2,25.9,0000.8,0022.67,0039.37,0020.33
2021-09-01 21:55:00,,0821.4,5.00,0.00,29.3,26.5,00.0,38.3,30.7,25.5,0001.0,0022.70,0040.99,0020.32
2021-09-01 21:56:00,,0821.4,5.00,0.00,29.1,25.7,00.0,38.3,30.5,25.5,0001.2,0022.74,0042.03,0020.29
2021-09-01 21:57:00,,0821.4,4.99,0.00,29.1,26.1,00.0,38.3,30.6,25.7,0001.3,0022.69,0042.46,0020.26
2021-09-01 21:58:00,,0821.4,5.00,0.00,29.0,26.6,00.0,38.2,30.7,25.5,0001.3,0022.68,0043.67,0020.18
2021-09-01 21:59:00,,0821.4,5.00,0.00,29.1,27.0,00.0,38.2,30.8,25.8,0001.6,0022.66,0045.08,0020.12
